owner,sensor,date,latitude,longitude,vertical_datum,direction_of_sea_water_velocity,sea_water_speed,upward_sea_water_velocity,qcFlag 
TABS,ioos:station:wmo:42048:1,2009-10-01T00:00:00Z,27.9396,-96.8429,2.0,234.1940656,16.90491644,-99999.0,'11111222,11111222,99999999' 
TABS,ioos:station:wmo:42048:1,2009-10-01T00:30:00Z,27.9396,-96.8429,2.0,218.1601626,19.89104572,-99999.0,'11111222,11111222,99999999' 
TABS,ioos:station:wmo:42048:1,2009-10-01T01:00:00Z,27.9396,-96.8429,2.0,221.7355779,18.13134854,-99999.0,'11111222,11111222,99999999' 
TABS,ioos:station:wmo:42048:1,2009-10-01T01:30:00Z,27.9396,-96.8429,2.0,226.1515051,20.05052867,-99999.0,'11111222,11111222,99999999' 
TABS,ioos:station:wmo:42048:1,2009-10-01T02:00:00Z,27.9396,-96.8429,2.0,219.8771726,17.34388941,-99999.0,'11111222,11111222,99999999' 
TABS,ioos:station:wmo:42048:1,2009-10-01T02:30:00Z,27.9396,-96.8429,2.0,227.5232392,18.62911699,-99999.0,'11111222,11111222,99999999' 
TABS,ioos:station:wmo:42048:1,2009-10-01T03:00:00Z,27.9396,-96.8429,2.0,224.8801692,16.94938642,-99999.0,'11111222,11111222,99999999' 
TABS,ioos:station:wmo:42048:1,2009-10-01T03:30:00Z,27.9396,-96.8429,2.0,224.6485131,14.99801654,-99999.0,'11111222,11111222,99999999' 
TABS,ioos:station:wmo:42048:1,2009-10-01T04:00:00Z,27.9396,-96.8429,2.0,223.1048424,16.03888088,-99999.0,'11111222,11111222,99999999' 
TABS,ioos:station:wmo:42048:1,2009-10-01T04:30:00Z,27.9396,-96.8429,2.0,227.7581083,14.39923609,-99999.0,'11111222,11111222,99999999' 
TABS,ioos:station:wmo:42048:1,2009-10-01T05:00:00Z,27.9396,-96.8429,2.0,227.0152125,13.06834726,-99999.0,'11111222,11111222,99999999' 
TABS,ioos:station:wmo:42048:1,2009-10-01T05:30:00Z,27.9396,-96.8429,2.0,231.1629579,12.64544977,-99999.0,'11111222,11111222,99999999' 
TABS,ioos:station:wmo:42048:1,2009-10-01T06:00:00Z,27.9396,-96.8429,2.0,232.5741677,11.96256243,-99999.0,'11111222,11111222,99999999' 
TABS,ioos:station:wmo:42048:1,2009-10-01T06:30:00Z,27.9396,-96.8429,2.0,235.2750184,11.05975135,-99999.0,'11111222,11111222,99999999' 
TABS,ioos:station:wmo:42048:1,2009-10-01T07:00:00Z,27.9396,-96.8429,2.0,236.3823005,8.742082132,-99999.0,'11133222,11111222,99999999' 
TABS,ioos:station:wmo:42048:1,2009-10-01T07:30:00Z,27.9396,-96.8429,2.0,225.6417312,10.7274834,-99999.0,'11111222,11111222,99999999' 
TABS,ioos:station:wmo:42048:1,2009-10-01T08:00:00Z,27.9396,-96.8429,2.0,230.0891493,9.086792613,-99999.0,'11133222,11111222,99999999' 
TABS,ioos:station:wmo:42048:1,2009-10-01T08:30:00Z,27.9396,-96.8429,2.0,227.3557791,11.86821385,-99999.0,'11111222,11111222,99999999' 
TABS,ioos:station:wmo:42048:1,2009-10-01T09:00:00Z,27.9396,-96.8429,2.0,228.4551669,9.62,-99999.0,'11133222,11111222,99999999' 
TABS,ioos:station:wmo:42048:1,2009-10-01T09:30:00Z,27.9396,-96.8429,2.0,239.6445173,7.103872184,-99999.0,'11133222,11111222,99999999' 
TABS,ioos:station:wmo:42048:1,2009-10-01T10:00:00Z,27.9396,-96.8429,2.0,219.859939,9.392789788,-99999.0,'11133222,11111222,99999999' 
TABS,ioos:station:wmo:42048:1,2009-10-01T10:30:00Z,27.9396,-96.8429,2.0,243.1743261,6.891632608,-99999.0,'11133222,11111222,99999999' 
TABS,ioos:station:wmo:42048:1,2009-10-01T11:00:00Z,27.9396,-96.8429,2.0,209.2723951,5.869522979,-99999.0,'11133222,11111222,99999999' 
TABS,ioos:station:wmo:42048:1,2009-10-01T11:30:00Z,27.9396,-96.8429,2.0,207.6009094,5.935494925,-99999.0,'11133222,11111222,99999999' 
TABS,ioos:station:wmo:42048:1,2009-10-01T12:00:00Z,27.9396,-96.8429,2.0,230.6517753,6.892445139,-99999.0,'11133222,11111222,99999999' 
TABS,ioos:station:wmo:42048:1,2009-10-01T12:30:00Z,27.9396,-96.8429,2.0,221.6687747,5.354773571,-99999.0,'11133222,11111222,99999999' 
TABS,ioos:station:wmo:42048:1,2009-10-01T13:00:00Z,27.9396,-96.8429,2.0,214.415575,7.006425622,-99999.0,'11133222,11111222,99999999' 
TABS,ioos:station:wmo:42048:1,2009-10-01T13:30:00Z,27.9396,-96.8429,2.0,193.9959893,3.473110997,-99999.0,'11133222,11111222,99999999' 
TABS,ioos:station:wmo:42048:1,2009-10-01T14:00:00Z,27.9396,-96.8429,2.0,230.8260127,5.22422243,-99999.0,'11133222,11111222,99999999' 
TABS,ioos:station:wmo:42048:1,2009-10-01T14:30:00Z,27.9396,-96.8429,2.0,204.4750362,4.537763766,-99999.0,'11133222,11111222,99999999' 
TABS,ioos:station:wmo:42048:1,2009-10-01T15:00:00Z,27.9396,-96.8429,2.0,255.9088012,5.093250436,-99999.0,'11133222,11111222,99999999' 
TABS,ioos:station:wmo:42048:1,2009-10-01T15:30:00Z,27.9396,-96.8429,2.0,253.9345556,3.288419073,-99999.0,'11133222,11111222,99999999' 
TABS,ioos:station:wmo:42048:1,2009-10-01T16:00:00Z,27.9396,-96.8429,2.0,269.2506591,3.060261427,-99999.0,'11133222,11111222,99999999' 
TABS,ioos:station:wmo:42048:1,2009-10-01T16:30:00Z,27.9396,-96.8429,2.0,293.0354115,1.380036231,-99999.0,'11133222,11111222,99999999' 
TABS,ioos:station:wmo:42048:1,2009-10-01T17:00:00Z,27.9396,-96.8429,2.0,347.6724686,1.545639026,-99999.0,'11133222,11111222,99999999' 
TABS,ioos:station:wmo:42048:1,2009-10-01T17:30:00Z,27.9396,-96.8429,2.0,336.0377775,0.689420046,-99999.0,'11133222,11111222,99999999' 
TABS,ioos:station:wmo:42048:1,2009-10-01T18:00:00Z,27.9396,-96.8429,2.0,1.799481975,1.910942176,-99999.0,'11133222,11111222,99999999' 
TABS,ioos:station:wmo:42048:1,2009-10-01T18:30:00Z,27.9396,-96.8429,2.0,45.14298684,2.835507009,-99999.0,'11133222,11111222,99999999' 
TABS,ioos:station:wmo:42048:1,2009-10-01T19:00:00Z,27.9396,-96.8429,2.0,38.34803348,2.868954513,-99999.0,'11133222,11111222,99999999' 
TABS,ioos:station:wmo:42048:1,2009-10-01T19:30:00Z,27.9396,-96.8429,2.0,36.01770882,4.302476031,-99999.0,'11133222,11111222,99999999' 
TABS,ioos:station:wmo:42048:1,2009-10-01T20:00:00Z,27.9396,-96.8429,2.0,42.49133355,5.492412949,-99999.0,'11133222,11111222,99999999' 
TABS,ioos:station:wmo:42048:1,2009-10-01T20:30:00Z,27.9396,-96.8429,2.0,53.57145154,4.934146329,-99999.0,'11133222,11111222,99999999' 
TABS,ioos:station:wmo:42048:1,2009-10-01T21:00:00Z,27.9396,-96.8429,2.0,66.25517682,4.544722214,-99999.0,'11133222,11111222,99999999' 
TABS,ioos:station:wmo:42048:1,2009-10-01T21:30:00Z,27.9396,-96.8429,2.0,83.02804805,5.107768593,-99999.0,'11133222,11111222,99999999' 
TABS,ioos:station:wmo:42048:1,2009-10-01T22:00:00Z,27.9396,-96.8429,2.0,76.52811391,4.678739146,-99999.0,'11133222,11111222,99999999' 
TABS,ioos:station:wmo:42048:1,2009-10-01T22:30:00Z,27.9396,-96.8429,2.0,96.97618016,2.387676695,-99999.0,'11133222,11111222,99999999' 
TABS,ioos:station:wmo:42048:1,2009-10-01T23:00:00Z,27.9396,-96.8429,2.0,68.87533025,1.41509717,-99999.0,'11133222,11111222,99999999' 
TABS,ioos:station:wmo:42048:1,2009-10-01T23:30:00Z,27.9396,-96.8429,2.0,109.1721252,3.44084292,-99999.0,'11133222,11111222,99999999' 
TABS,ioos:station:wmo:42048:1,2009-10-02T00:00:00Z,27.9396,-96.8429,2.0,89.16158699,2.0502195,-99999.0,'11133222,11111222,99999999' 
TABS,ioos:station:wmo:42048:1,2009-10-02T00:30:00Z,27.9396,-96.8429,2.0,100.7978434,1.974968354,-99999.0,'11133222,11111222,99999999' 
TABS,ioos:station:wmo:42048:1,2009-10-02T01:00:00Z,27.9396,-96.8429,2.0,86.02751335,2.165202069,-99999.0,'11133222,11111222,99999999' 
TABS,ioos:station:wmo:42048:1,2009-10-02T01:30:00Z,27.9396,-96.8429,2.0,100.8684999,1.272831489,-99999.0,'11133222,11111222,99999999' 
TABS,ioos:station:wmo:42048:1,2009-10-02T02:00:00Z,27.9396,-96.8429,2.0,25.39606292,1.095901455,-99999.0,'11133222,11111222,99999999' 
TABS,ioos:station:wmo:42048:1,2009-10-02T02:30:00Z,27.9396,-96.8429,2.0,335.9465788,2.551568145,-99999.0,'11133222,11111222,99999999' 
TABS,ioos:station:wmo:42048:1,2009-10-02T03:00:00Z,27.9396,-96.8429,2.0,101.3770756,1.672871782,-99999.0,'11133222,11111222,99999999' 
TABS,ioos:station:wmo:42048:1,2009-10-02T03:30:00Z,27.9396,-96.8429,2.0,69.29946318,2.319762919,-99999.0,'11133222,11111222,99999999' 
TABS,ioos:station:wmo:42048:1,2009-10-02T04:00:00Z,27.9396,-96.8429,2.0,41.94044348,6.35888355,-99999.0,'11133222,11111222,99999999' 
TABS,ioos:station:wmo:42048:1,2009-10-02T04:30:00Z,27.9396,-96.8429,2.0,17.61274712,3.965904689,-99999.0,'11133222,11111222,99999999' 
TABS,ioos:station:wmo:42048:1,2009-10-02T05:00:00Z,27.9396,-96.8429,2.0,44.54538743,3.563930415,-99999.0,'11133222,11111222,99999999' 
TABS,ioos:station:wmo:42048:1,2009-10-02T05:30:00Z,27.9396,-96.8429,2.0,37.46389984,7.332393879,-99999.0,'11133222,11111222,99999999' 
TABS,ioos:station:wmo:42048:1,2009-10-02T06:00:00Z,27.9396,-96.8429,2.0,39.41223903,6.898789749,-99999.0,'11133222,11111222,99999999' 
TABS,ioos:station:wmo:42048:1,2009-10-02T06:30:00Z,27.9396,-96.8429,2.0,39.45989168,6.152284129,-99999.0,'11133222,11111222,99999999' 
TABS,ioos:station:wmo:42048:1,2009-10-02T07:00:00Z,27.9396,-96.8429,2.0,61.35390457,6.403850404,-99999.0,'11133222,11111222,99999999' 
TABS,ioos:station:wmo:42048:1,2009-10-02T07:30:00Z,27.9396,-96.8429,2.0,51.00427102,8.788048703,-99999.0,'11133222,11111222,99999999' 
TABS,ioos:station:wmo:42048:1,2009-10-02T08:00:00Z,27.9396,-96.8429,2.0,46.77246156,9.373649236,-99999.0,'11133222,11111222,99999999' 
TABS,ioos:station:wmo:42048:1,2009-10-02T08:30:00Z,27.9396,-96.8429,2.0,66.76989589,9.532848473,-99999.0,'11133222,11111222,99999999' 
TABS,ioos:station:wmo:42048:1,2009-10-02T09:00:00Z,27.9396,-96.8429,2.0,36.25109505,10.73862654,-99999.0,'11111222,11111222,99999999' 
TABS,ioos:station:wmo:42048:1,2009-10-02T09:30:00Z,27.9396,-96.8429,2.0,44.86654919,12.13398533,-99999.0,'11111222,11111222,99999999' 
TABS,ioos:station:wmo:42048:1,2009-10-02T10:00:00Z,27.9396,-96.8429,2.0,41.99531747,10.65660828,-99999.0,'11111222,11111222,99999999' 
TABS,ioos:station:wmo:42048:1,2009-10-02T10:30:00Z,27.9396,-96.8429,2.0,52.24412063,14.35571663,-99999.0,'11111222,11111222,99999999' 
TABS,ioos:station:wmo:42048:1,2009-10-02T11:00:00Z,27.9396,-96.8429,2.0,41.66444708,10.81584486,-99999.0,'11111222,11111222,99999999' 
TABS,ioos:station:wmo:42048:1,2009-10-02T11:30:00Z,27.9396,-96.8429,2.0,41.80012222,11.14724181,-99999.0,'11111222,11111222,99999999' 
TABS,ioos:station:wmo:42048:1,2009-10-02T12:00:00Z,27.9396,-96.8429,2.0,25.6971501,11.80779404,-99999.0,'11111222,11111222,99999999' 
TABS,ioos:station:wmo:42048:1,2009-10-02T12:30:00Z,27.9396,-96.8429,2.0,49.66894279,12.42266075,-99999.0,'11111222,11111222,99999999' 
TABS,ioos:station:wmo:42048:1,2009-10-02T13:00:00Z,27.9396,-96.8429,2.0,48.50362868,10.41393297,-99999.0,'11111222,11111222,99999999' 
TABS,ioos:station:wmo:42048:1,2009-10-02T13:30:00Z,27.9396,-96.8429,2.0,101.5480852,4.245951012,-99999.0,'11133222,11111222,99999999' 
TABS,ioos:station:wmo:42048:1,2009-10-02T14:00:00Z,27.9396,-96.8429,2.0,80.6807004,1.976081982,-99999.0,'11133222,11111222,99999999' 
TABS,ioos:station:wmo:42048:1,2009-10-02T14:30:00Z,27.9396,-96.8429,2.0,42.72349557,4.628131372,-99999.0,'11133222,11111222,99999999' 
TABS,ioos:station:wmo:42048:1,2009-10-02T15:00:00Z,27.9396,-96.8429,2.0,161.2218002,2.112439348,-99999.0,'11133222,11111222,99999999' 
TABS,ioos:station:wmo:42048:1,2009-10-02T15:30:00Z,27.9396,-96.8429,2.0,197.2627456,2.628402557,-99999.0,'11133222,11111222,99999999' 
TABS,ioos:station:wmo:42048:1,2009-10-02T16:00:00Z,27.9396,-96.8429,2.0,116.7357654,3.000816556,-99999.0,'11133222,11111222,99999999' 
TABS,ioos:station:wmo:42048:1,2009-10-02T16:30:00Z,27.9396,-96.8429,2.0,278.6240927,2.134127456,-99999.0,'11133222,11111222,99999999' 
TABS,ioos:station:wmo:42048:1,2009-10-02T17:00:00Z,27.9396,-96.8429,2.0,209.1285428,1.49966663,-99999.0,'11133222,11111222,99999999' 
TABS,ioos:station:wmo:42048:1,2009-10-02T17:30:00Z,27.9396,-96.8429,2.0,253.2283945,5.337012273,-99999.0,'11133222,11111222,99999999' 
TABS,ioos:station:wmo:42048:1,2009-10-02T18:00:00Z,27.9396,-96.8429,2.0,240.2070508,5.957390368,-99999.0,'11133222,11111222,99999999' 
TABS,ioos:station:wmo:42048:1,2009-10-02T18:30:00Z,27.9396,-96.8429,2.0,246.7727859,7.987371282,-99999.0,'11133222,11111222,99999999' 
TABS,ioos:station:wmo:42048:1,2009-10-02T19:00:00Z,27.9396,-96.8429,2.0,250.4330142,11.04799077,-99999.0,'11111222,11111222,99999999' 
TABS,ioos:station:wmo:42048:1,2009-10-02T19:30:00Z,27.9396,-96.8429,2.0,240.9598314,11.28925595,-99999.0,'11111222,11111222,99999999' 
TABS,ioos:station:wmo:42048:1,2009-10-02T20:00:00Z,27.9396,-96.8429,2.0,240.2918399,15.33565779,-99999.0,'11111222,11111222,99999999' 
TABS,ioos:station:wmo:42048:1,2009-10-02T20:30:00Z,27.9396,-96.8429,2.0,234.3146951,16.73157793,-99999.0,'11111222,11111222,99999999' 
TABS,ioos:station:wmo:42048:1,2009-10-02T21:00:00Z,27.9396,-96.8429,2.0,239.5552848,16.45939549,-99999.0,'11111222,11111222,99999999' 
TABS,ioos:station:wmo:42048:1,2009-10-02T21:30:00Z,27.9396,-96.8429,2.0,238.929614,19.41538823,-99999.0,'11111222,11111222,99999999' 
TABS,ioos:station:wmo:42048:1,2009-10-02T22:00:00Z,27.9396,-96.8429,2.0,232.1747285,19.07865037,-99999.0,'11111222,11111222,99999999' 
TABS,ioos:station:wmo:42048:1,2009-10-02T22:30:00Z,27.9396,-96.8429,2.0,226.0413086,21.78248838,-99999.0,'11111222,11111222,99999999' 
TABS,ioos:station:wmo:42048:1,2009-10-02T23:00:00Z,27.9396,-96.8429,2.0,222.3426316,20.59187461,-99999.0,'11111222,11111222,99999999' 
TABS,ioos:station:wmo:42048:1,2009-10-02T23:30:00Z,27.9396,-96.8429,2.0,231.9860099,21.74233198,-99999.0,'11111222,11111222,99999999' 
TABS,ioos:station:wmo:42048:1,2009-10-03T00:00:00Z,27.9396,-96.8429,2.0,224.9190431,20.09599463,-99999.0,'11111222,11111222,99999999' 
TABS,ioos:station:wmo:42048:1,2009-10-03T00:30:00Z,27.9396,-96.8429,2.0,229.3853295,19.048664,-99999.0,'11111222,11111222,99999999' 
TABS,ioos:station:wmo:42048:1,2009-10-03T01:00:00Z,27.9396,-96.8429,2.0,228.2107966,20.82871335,-99999.0,'11111222,11111222,99999999' 
TABS,ioos:station:wmo:42048:1,2009-10-03T01:30:00Z,27.9396,-96.8429,2.0,223.5544196,23.83000839,-99999.0,'11111222,11111222,99999999' 
TABS,ioos:station:wmo:42048:1,2009-10-03T02:00:00Z,27.9396,-96.8429,2.0,230.0976946,24.3500883,-99999.0,'11111222,11111222,99999999' 
TABS,ioos:station:wmo:42048:1,2009-10-03T02:30:00Z,27.9396,-96.8429,2.0,230.6780784,23.79778351,-99999.0,'11111222,11111222,99999999' 
TABS,ioos:station:wmo:42048:1,2009-10-03T03:00:00Z,27.9396,-96.8429,2.0,230.9289083,22.86286509,-99999.0,'11111222,11111222,99999999' 
TABS,ioos:station:wmo:42048:1,2009-10-03T03:30:00Z,27.9396,-96.8429,2.0,229.0866323,21.52958197,-99999.0,'11111222,11111222,99999999' 
TABS,ioos:station:wmo:42048:1,2009-10-03T04:00:00Z,27.9396,-96.8429,2.0,225.3148772,23.13688397,-99999.0,'11111222,11111222,99999999' 
TABS,ioos:station:wmo:42048:1,2009-10-03T04:30:00Z,27.9396,-96.8429,2.0,238.3512304,21.09754725,-99999.0,'11111222,11111222,99999999' 
TABS,ioos:station:wmo:42048:1,2009-10-03T05:00:00Z,27.9396,-96.8429,2.0,222.7557938,21.4913122,-99999.0,'11111222,11111222,99999999' 
TABS,ioos:station:wmo:42048:1,2009-10-03T05:30:00Z,27.9396,-96.8429,2.0,232.9392591,24.060133,-99999.0,'11111222,11111222,99999999' 
TABS,ioos:station:wmo:42048:1,2009-10-03T06:00:00Z,27.9396,-96.8429,2.0,228.6762776,21.17192481,-99999.0,'11111222,11111222,99999999' 
TABS,ioos:station:wmo:42048:1,2009-10-03T06:30:00Z,27.9396,-96.8429,2.0,220.3595199,23.16295534,-99999.0,'11111222,11111222,99999999' 
TABS,ioos:station:wmo:42048:1,2009-10-03T07:00:00Z,27.9396,-96.8429,2.0,229.7367457,24.06017664,-99999.0,'11111222,11111222,99999999' 
TABS,ioos:station:wmo:42048:1,2009-10-03T07:30:00Z,27.9396,-96.8429,2.0,229.6953045,21.76709443,-99999.0,'11111222,11111222,99999999' 
TABS,ioos:station:wmo:42048:1,2009-10-03T08:00:00Z,27.9396,-96.8429,2.0,230.4075871,17.18138819,-99999.0,'11111222,11111222,99999999' 
TABS,ioos:station:wmo:42048:1,2009-10-03T08:30:00Z,27.9396,-96.8429,2.0,225.0771632,20.91623771,-99999.0,'11111222,11111222,99999999' 
TABS,ioos:station:wmo:42048:1,2009-10-03T09:00:00Z,27.9396,-96.8429,2.0,230.0220139,23.01985447,-99999.0,'11111222,11111222,99999999' 
TABS,ioos:station:wmo:42048:1,2009-10-03T09:30:00Z,27.9396,-96.8429,2.0,224.3027806,22.09165001,-99999.0,'11111222,11111222,99999999' 
TABS,ioos:station:wmo:42048:1,2009-10-03T10:00:00Z,27.9396,-96.8429,2.0,221.2725485,18.60089514,-99999.0,'11111222,11111222,99999999' 
TABS,ioos:station:wmo:42048:1,2009-10-03T10:30:00Z,27.9396,-96.8429,2.0,223.1366181,21.96727794,-99999.0,'11111222,11111222,99999999' 
TABS,ioos:station:wmo:42048:1,2009-10-03T11:00:00Z,27.9396,-96.8429,2.0,223.742177,23.19868962,-99999.0,'11111222,11111222,99999999' 
TABS,ioos:station:wmo:42048:1,2009-10-03T11:30:00Z,27.9396,-96.8429,2.0,221.5200072,23.53347403,-99999.0,'11111222,11111222,99999999' 
TABS,ioos:station:wmo:42048:1,2009-10-03T12:00:00Z,27.9396,-96.8429,2.0,220.9455838,22.90393198,-99999.0,'11111222,11111222,99999999' 
TABS,ioos:station:wmo:42048:1,2009-10-03T12:30:00Z,27.9396,-96.8429,2.0,222.3314869,19.89834415,-99999.0,'11111222,11111222,99999999' 
TABS,ioos:station:wmo:42048:1,2009-10-03T13:00:00Z,27.9396,-96.8429,2.0,229.6632962,17.82862025,-99999.0,'11111222,11111222,99999999' 
TABS,ioos:station:wmo:42048:1,2009-10-03T13:30:00Z,27.9396,-96.8429,2.0,231.661387,21.15094561,-99999.0,'11111222,11111222,99999999' 
TABS,ioos:station:wmo:42048:1,2009-10-03T14:00:00Z,27.9396,-96.8429,2.0,220.0246317,23.07497562,-99999.0,'11111222,11111222,99999999' 
TABS,ioos:station:wmo:42048:1,2009-10-03T14:30:00Z,27.9396,-96.8429,2.0,232.5610951,19.34495283,-99999.0,'11111222,11111222,99999999' 
TABS,ioos:station:wmo:42048:1,2009-10-03T15:00:00Z,27.9396,-96.8429,2.0,223.9082817,20.41787697,-99999.0,'11111222,11111222,99999999' 
TABS,ioos:station:wmo:42048:1,2009-10-03T15:30:00Z,27.9396,-96.8429,2.0,236.8596237,21.09067329,-99999.0,'11111222,11111222,99999999' 
TABS,ioos:station:wmo:42048:1,2009-10-03T16:00:00Z,27.9396,-96.8429,2.0,232.6119525,21.24486762,-99999.0,'11111222,11111222,99999999' 
TABS,ioos:station:wmo:42048:1,2009-10-03T16:30:00Z,27.9396,-96.8429,2.0,234.8568151,18.05019944,-99999.0,'11111222,11111222,99999999' 
TABS,ioos:station:wmo:42048:1,2009-10-03T17:00:00Z,27.9396,-96.8429,2.0,237.1376282,22.26244371,-99999.0,'11111222,11111222,99999999' 
TABS,ioos:station:wmo:42048:1,2009-10-03T17:30:00Z,27.9396,-96.8429,2.0,242.8310116,22.07568798,-99999.0,'11111222,11111222,99999999' 
TABS,ioos:station:wmo:42048:1,2009-10-03T18:00:00Z,27.9396,-96.8429,2.0,248.2941931,22.17205448,-99999.0,'11111222,11111222,99999999' 
TABS,ioos:station:wmo:42048:1,2009-10-03T18:30:00Z,27.9396,-96.8429,2.0,242.0701376,23.10066016,-99999.0,'11111222,11111222,99999999' 
TABS,ioos:station:wmo:42048:1,2009-10-03T19:00:00Z,27.9396,-96.8429,2.0,243.8008214,18.89068818,-99999.0,'11111222,11111222,99999999' 
TABS,ioos:station:wmo:42048:1,2009-10-03T19:30:00Z,27.9396,-96.8429,2.0,240.4373437,19.07291797,-99999.0,'11111222,11111222,99999999' 
TABS,ioos:station:wmo:42048:1,2009-10-03T20:00:00Z,27.9396,-96.8429,2.0,244.6549542,18.26834694,-99999.0,'11111222,11111222,99999999' 
TABS,ioos:station:wmo:42048:1,2009-10-03T20:30:00Z,27.9396,-96.8429,2.0,240.4043066,16.15805991,-99999.0,'11111222,11111222,99999999' 
TABS,ioos:station:wmo:42048:1,2009-10-03T21:00:00Z,27.9396,-96.8429,2.0,236.2426227,16.61050872,-99999.0,'11111222,11111222,99999999' 
TABS,ioos:station:wmo:42048:1,2009-10-03T21:30:00Z,27.9396,-96.8429,2.0,234.8777314,16.98190213,-99999.0,'11111222,11111222,99999999' 
TABS,ioos:station:wmo:42048:1,2009-10-03T22:00:00Z,27.9396,-96.8429,2.0,229.6823889,16.6300932,-99999.0,'11111222,11111222,99999999' 
TABS,ioos:station:wmo:42048:1,2009-10-03T22:30:00Z,27.9396,-96.8429,2.0,230.3101694,20.85725054,-99999.0,'11111222,11111222,99999999' 
TABS,ioos:station:wmo:42048:1,2009-10-03T23:00:00Z,27.9396,-96.8429,2.0,226.8547652,17.47469599,-99999.0,'11111222,11111222,99999999' 
TABS,ioos:station:wmo:42048:1,2009-10-03T23:30:00Z,27.9396,-96.8429,2.0,221.608814,19.48662362,-99999.0,'11111222,11111222,99999999' 
TABS,ioos:station:wmo:42048:1,2009-10-04T00:00:00Z,27.9396,-96.8429,2.0,220.4081355,17.40117525,-99999.0,'11111222,11111222,99999999' 
TABS,ioos:station:wmo:42048:1,2009-10-04T00:30:00Z,27.9396,-96.8429,2.0,221.2283487,18.92072409,-99999.0,'11111222,11111222,99999999' 
TABS,ioos:station:wmo:42048:1,2009-10-04T01:00:00Z,27.9396,-96.8429,2.0,225.0762486,15.87456141,-99999.0,'11111222,11111222,99999999' 
TABS,ioos:station:wmo:42048:1,2009-10-04T01:30:00Z,27.9396,-96.8429,2.0,216.4775069,16.36638323,-99999.0,'11111222,11111222,99999999' 
TABS,ioos:station:wmo:42048:1,2009-10-04T02:00:00Z,27.9396,-96.8429,2.0,225.0724253,16.70894671,-99999.0,'11111222,11111222,99999999' 
TABS,ioos:station:wmo:42048:1,2009-10-04T02:30:00Z,27.9396,-96.8429,2.0,226.1050161,15.02881566,-99999.0,'11111222,11111222,99999999' 
TABS,ioos:station:wmo:42048:1,2009-10-04T03:00:00Z,27.9396,-96.8429,2.0,225.9951644,16.28005528,-99999.0,'11111222,11111222,99999999' 
TABS,ioos:station:wmo:42048:1,2009-10-04T03:30:00Z,27.9396,-96.8429,2.0,226.4187742,17.13138056,-99999.0,'11111222,11111222,99999999' 
TABS,ioos:station:wmo:42048:1,2009-10-04T04:00:00Z,27.9396,-96.8429,2.0,221.9177129,15.38768664,-99999.0,'11111222,11111222,99999999' 
TABS,ioos:station:wmo:42048:1,2009-10-04T04:30:00Z,27.9396,-96.8429,2.0,229.4545988,15.47582631,-99999.0,'11111222,11111222,99999999' 
TABS,ioos:station:wmo:42048:1,2009-10-04T05:00:00Z,27.9396,-96.8429,2.0,223.9874991,14.00997145,-99999.0,'11111222,11111222,99999999' 
TABS,ioos:station:wmo:42048:1,2009-10-04T05:30:00Z,27.9396,-96.8429,2.0,229.5735949,14.54200124,-99999.0,'11111222,11111222,99999999' 
TABS,ioos:station:wmo:42048:1,2009-10-04T06:00:00Z,27.9396,-96.8429,2.0,227.3023956,13.37511869,-99999.0,'11111222,11111222,99999999' 
TABS,ioos:station:wmo:42048:1,2009-10-04T06:30:00Z,27.9396,-96.8429,2.0,228.8290607,14.08165118,-99999.0,'11111222,11111222,99999999' 
TABS,ioos:station:wmo:42048:1,2009-10-04T07:00:00Z,27.9396,-96.8429,2.0,231.2695886,15.28005236,-99999.0,'11111222,11111222,99999999' 
TABS,ioos:station:wmo:42048:1,2009-10-04T07:30:00Z,27.9396,-96.8429,2.0,235.3045067,15.17893277,-99999.0,'11111222,11111222,99999999' 
TABS,ioos:station:wmo:42048:1,2009-10-04T08:00:00Z,27.9396,-96.8429,2.0,223.4944118,14.80485393,-99999.0,'11111222,11111222,99999999' 
TABS,ioos:station:wmo:42048:1,2009-10-04T08:30:00Z,27.9396,-96.8429,2.0,227.6746247,15.75736653,-99999.0,'11111222,11111222,99999999' 
TABS,ioos:station:wmo:42048:1,2009-10-04T09:00:00Z,27.9396,-96.8429,2.0,216.3781911,16.55660895,-99999.0,'11111222,11111222,99999999' 
TABS,ioos:station:wmo:42048:1,2009-10-04T09:30:00Z,27.9396,-96.8429,2.0,213.4034615,14.98541291,-99999.0,'11111222,11111222,99999999' 
TABS,ioos:station:wmo:42048:1,2009-10-04T10:00:00Z,27.9396,-96.8429,2.0,203.8129643,14.81090477,-99999.0,'11111222,11111222,99999999' 
TABS,ioos:station:wmo:42048:1,2009-10-04T10:30:00Z,27.9396,-96.8429,2.0,214.4852131,15.38331889,-99999.0,'11111222,11111222,99999999' 
TABS,ioos:station:wmo:42048:1,2009-10-04T11:00:00Z,27.9396,-96.8429,2.0,221.7222541,14.96564399,-99999.0,'11111222,11111222,99999999' 
TABS,ioos:station:wmo:42048:1,2009-10-04T11:30:00Z,27.9396,-96.8429,2.0,218.4946642,17.91320463,-99999.0,'11111222,11111222,99999999' 
TABS,ioos:station:wmo:42048:1,2009-10-04T12:00:00Z,27.9396,-96.8429,2.0,221.5216503,17.48359803,-99999.0,'11111222,11111222,99999999' 
TABS,ioos:station:wmo:42048:1,2009-10-04T12:30:00Z,27.9396,-96.8429,2.0,219.0828947,15.63966752,-99999.0,'11111222,11111222,99999999' 
TABS,ioos:station:wmo:42048:1,2009-10-04T13:00:00Z,27.9396,-96.8429,2.0,224.2319494,16.88722594,-99999.0,'11111222,11111222,99999999' 
TABS,ioos:station:wmo:42048:1,2009-10-04T13:30:00Z,27.9396,-96.8429,2.0,219.1443135,16.42694433,-99999.0,'11111222,11111222,99999999' 
TABS,ioos:station:wmo:42048:1,2009-10-04T14:00:00Z,27.9396,-96.8429,2.0,217.4065887,17.49876853,-99999.0,'11111222,11111222,99999999' 
TABS,ioos:station:wmo:42048:1,2009-10-04T14:30:00Z,27.9396,-96.8429,2.0,225.6013128,17.50892915,-99999.0,'11111222,11111222,99999999' 
TABS,ioos:station:wmo:42048:1,2009-10-04T15:00:00Z,27.9396,-96.8429,2.0,224.6874496,15.57072253,-99999.0,'11111222,11111222,99999999' 
TABS,ioos:station:wmo:42048:1,2009-10-04T15:30:00Z,27.9396,-96.8429,2.0,220.3955974,13.9183476,-99999.0,'11111222,11111222,99999999' 
TABS,ioos:station:wmo:42048:1,2009-10-04T16:00:00Z,27.9396,-96.8429,2.0,232.7828688,16.18629667,-99999.0,'11111222,11111222,99999999' 